[[{"header":{"parameterUnit":"m.s-1","parameterCategory":1,"la1":30.2991,"la2":30.254,"lo1":-89.0895,"lo2":-89.0444,"dy":0.0017,"dx":0.0017,"nx":28,"ny":28,"refTime":"2025-01-02T09:00:00:Z","depth":0,"parameterNumber":2,"parameterNumberName":"U-component_of_WINDS"},"data":[0,0,0,0,0,0,0,0,0,0,0,0,0,0,0,0,0,0,0,0,0,0,0,0,0,0,0,0,0,0,0,0,0,0,0,0,0,0,0,0,0,0,0,0,0,0,0,0,0,0,0,0,0,0,0,0,0,0,0.3922,0.3923,0,0.3966,0.3966,0.3967,0.4013,0.4014,0.4015,0.4015,0.4061,0.4061,0.4062,0,0,0,0,0,0,0,0,0,0,0,0,0,0.388,0.388,0.3922,0.3923,0.3923,0.3966,0.3966,0.3967,0.4013,0.4014,0.4015,0.4015,0.4061,0.4061,0.4062,0,0,0,0,0,0,0,0,0,0,0,0,0,0.3908,0.388,0.3922,0.3951,0.3954,0.3966,0.3966,0.3967,0.4013,0.4014,0.4015,0.4016,0.406,0.4061,0.4062,0.4048,0,0,0.4065,0.4065,0,0,0,0,0,0,0,0,0.3907,0.391,0.3946,0.3949,0.3953,0.3985,0.3968,0.3994,0.4013,0.3991,0.4015,0.4016,0.4035,0.4038,0.4044,0.4051,0.4053,0.4065,0.4066,0.4066,0.4066,0,0,0,0,0,0,0,0.3905,0.3908,0.394,0.3947,0.3951,0.3963,0.3968,0.3973,0.4007,0.3993,0.3996,0.4001,0.4037,0.4043,0.4045,0.4053,0.4065,0.4066,0.4066,0.4067,0.4051,0.405,0,0,0,0,0,0,0.3898,0.3906,0.3938,0.3941,0.3932,0.3963,0.3968,0.3974,0.4007,0.4013,0.4,0.4003,0.4041,0.4044,0.4047,0.4033,0.4066,0.4067,0.4067,0.4052,0.4051,0.405,0,0,0,0,0,0,0.3897,0.39,0.3936,0.3924,0.393,0.3962,0.3968,0.3974,0.398,0.4012,0.4019,0.4,0.4042,0.4046,0.4048,0.4035,0.4067,0.4068,0.4053,0.4052,0.405,0.4005,0,0,0,0,0,0,0.3895,0.39,0.3894,0.3924,0.393,0.3935,0.3967,0.3974,0.3982,0.3986,0.4014,0.402,0.4043,0.4046,0.4049,0.4037,0.4069,0.4054,0.4052,0.4051,0.4007,0.4002,0.3997,0,0,0,0,0,0.3894,0.388,0.3894,0.3897,0.3924,0.3935,0.3938,0.3965,0.3981,0.3976,0.3996,0.4019,0.4037,0.4046,0.4049,0.4038,0.4055,0.4053,0.4051,0.401,0.4003,0.3997,0,0,0,0,0,0,0.3848,0.3884,0.39,0.3896,0.3912,0.3942,0.3937,0.3957,0.397,0.3973,0.4006,0.4012,0.401,0.4024,0.4034,0.4026,0.4049,0.4047,0.4017,0.401,0.4005,0.4001,0.407,0,0,0,0,0,0.3838,0.3843,0.3874,0.3867,0.3874,0.3904,0.391,0.3929,0.3947,0.3954,0.3975,0.3992,0.4002,0.4007,0.4018,0.401,0.4017,0.4004,0.3999,0.3994,0.3992,0.3989,0.3984,0.4042,0.4042,0.4042,0,0,0.3816,0.3836,0.3837,0.3858,0.3873,0.3878,0.391,0.3913,0.3917,0.3955,0.3958,0.3974,0.3995,0.3992,0.3992,0.4004,0.3978,0.3992,0.3988,0.3988,0.3986,0.3981,0.3976,0.4041,0.4041,0.4041,0,0,0.3778,0.3794,0.379,0.3804,0.3826,0.3846,0.3845,0.3873,0.3885,0.3888,0.3917,0.3922,0.3938,0.3952,0.3961,0.3929,0.395,0.3932,0.3904,0.3901,0.3896,0.3892,0.388,0.3876,0.393,0.393,0.393,0,0.3748,0.3756,0.3785,0.3787,0.3795,0.383,0.3826,0.3839,0.3863,0.3868,0.3882,0.3902,0.3919,0.3919,0.3911,0.3918,0.3918,0.3928,0.3894,0.3891,0.3887,0.3876,0.3872,0.3927,0.3928,0.3928,0.3928,0,0.3718,0.3723,0.3717,0.3739,0.3747,0.3746,0.3775,0.378,0.3799,0.3817,0.382,0.3842,0.3857,0.3859,0.3878,0.3863,0.3869,0.3888,0.3911,0.3879,0.3869,0.3865,0.3924,0.3925,0.3925,0.3926,0,0,0.3652,0.369,0.3687,0.3698,0.3725,0.3729,0.373,0.3745,0.3748,0.3764,0.3765,0.3778,0.3796,0.3806,0.3827,0.3824,0.3797,0.3843,0.3844,0.3833,0.3781,0.3765,0.376,0.3812,0.3811,0.381,0.3779,0,0.3618,0.362,0.3647,0.3642,0.3647,0.368,0.3681,0.3698,0.3716,0.3723,0.3743,0.3751,0.3774,0.3781,0.3779,0.38,0.3787,0.3803,0.3813,0.3813,0.3805,0.3755,0.3739,0.3707,0.3775,0.3774,0.3774,0,0.3578,0.3591,0.3587,0.3614,0.3617,0.3617,0.3633,0.3639,0.3659,0.3673,0.3684,0.3708,0.3711,0.3734,0.3738,0.3749,0.3755,0.3766,0.3765,0.3766,0.379,0.3753,0.3698,0.3693,0.3768,0.3769,0.3769,0,0.3529,0.3546,0.3545,0.3553,0.3585,0.3584,0.3598,0.3619,0.3626,0.364,0.3645,0.366,0.3667,0.3678,0.3705,0.3719,0.3707,0.3732,0.3717,0.3717,0.3712,0.3712,0.3656,0.3718,0.3718,0.3718,0.3718,0,0.3488,0.3484,0.3524,0.3523,0.3519,0.3551,0.3546,0.3563,0.3581,0.3585,0.3616,0.3618,0.3654,0.3661,0.3683,0.3683,0.3686,0.3697,0.3703,0.3694,0.3692,0.3697,0.3699,0.3717,0.3717,0.3717,0.3717,0,0.3432,0.3459,0.346,0.349,0.3498,0.3494,0.352,0.3521,0.3541,0.3545,0.3548,0.3579,0.3589,0.3617,0.3634,0.3649,0.3643,0.3654,0.3635,0.3639,0.3622,0.3623,0.3566,0.356,0.3627,0.3626,0.3626,0,0.3403,0.3401,0.3431,0.3435,0.3447,0.3454,0.3461,0.3492,0.3499,0.3522,0.352,0.3532,0.3543,0.3557,0.3582,0.3596,0.3607,0.3586,0.3609,0.36,0.3605,0.3604,0.3604,0.358,0.3579,0.3579,0.3578,0,0.3349,0.3363,0.3372,0.3386,0.3394,0.3406,0.3421,0.3423,0.3458,0.3464,0.3474,0.3483,0.35,0.3512,0.3529,0.3544,0.3566,0.3571,0.3568,0.3558,0.3547,0.3552,0.362,0.3572,0.3572,0.3573,0.3573,0.3574,0.3306,0.3305,0.3325,0.3335,0.3349,0.3362,0.3364,0.3384,0.3393,0.3409,0.3427,0.3435,0.3456,0.3482,0.3495,0.3502,0.3514,0.351,0.3509,0.3507,0.3502,0.3547,0.3505,0.3505,0.3506,0.3506,0.3506,0,0.3252,0.3267,0.3276,0.3295,0.3302,0.3323,0.334,0.3345,0.3352,0.3369,0.3379,0.3391,0.3403,0.3428,0.3442,0.3443,0.3454,0.3446,0.3445,0.3448,0.3491,0.3492,0.3437,0.3437,0.3437,0.3437,0.3437,0.3437,0.3225,0.3224,0.324,0.3247,0.3263,0.327,0.3278,0.329,0.3304,0.3315,0.3325,0.3342,0.3362,0.3378,0.339,0.3397,0.3401,0.3389,0.3399,0.3439,0.3445,0.3451,0.3452,0.3389,0.3389,0.3355,0.3355,0.3355]},{"header":{"parameterUnit":"m.s-1","parameterCategory":1,"la1":30.2991,"la2":30.254,"lo1":-89.0895,"lo2":-89.0444,"dy":0.0017,"dx":0.0017,"nx":28,"ny":28,"refTime":"2025-01-02T09:00:00:Z","depth":0,"parameterNumber":3,"parameterNumberName":"V-component_of_WINDS"},"data":[0,0,0,0,0,0,0,0,0,0,0,0,0,0,0,0,0,0,0,0,0,0,0,0,0,0,0,0,0,0,0,0,0,0,0,0,0,0,0,0,0,0,0,0,0,0,0,0,0,0,0,0,0,0,0,0,0,0,-2.5525,-2.5527,0,-2.5693,-2.5695,-2.5697,-2.5803,-2.5804,-2.5804,-2.5805,-2.5976,-2.5979,-2.5983,0,0,0,0,0,0,0,0,0,0,0,0,0,-2.53,-2.5303,-2.5525,-2.5527,-2.5529,-2.5693,-2.5695,-2.5697,-2.5803,-2.5804,-2.5805,-2.5805,-2.5974,-2.5979,-2.5984,0,0,0,0,0,0,0,0,0,0,0,0,0,-2.5425,-2.5304,-2.5525,-2.5602,-2.5611,-2.5692,-2.5695,-2.5698,-2.5803,-2.5804,-2.5805,-2.5806,-2.5973,-2.5979,-2.5984,-2.6002,0,0,-2.6003,-2.6005,0,0,0,0,0,0,0,0,-2.5418,-2.5434,-2.5589,-2.5597,-2.5607,-2.5728,-2.5678,-2.58,-2.5803,-2.573,-2.5805,-2.5806,-2.5892,-2.5905,-2.5934,-2.601,-2.6018,-2.6003,-2.6007,-2.6009,-2.6011,0,0,0,0,0,0,0,-2.5409,-2.5427,-2.5592,-2.5591,-2.5602,-2.5629,-2.5648,-2.5702,-2.5804,-2.5736,-2.5744,-2.5763,-2.5898,-2.5928,-2.5939,-2.602,-2.6003,-2.6008,-2.6012,-2.6014,-2.6125,-2.6125,0,0,0,0,0,0,-2.5388,-2.5419,-2.5586,-2.5597,-2.5513,-2.5632,-2.5654,-2.5688,-2.5804,-2.5822,-2.5762,-2.5767,-2.5918,-2.5932,-2.5946,-2.5978,-2.6009,-2.6015,-2.6018,-2.6126,-2.6125,-2.6124,0,0,0,0,0,0,-2.5383,-2.5402,-2.558,-2.551,-2.5535,-2.5635,-2.5673,-2.5691,-2.5722,-2.5823,-2.5842,-2.5774,-2.5919,-2.5937,-2.5989,-2.5985,-2.6017,-2.6023,-2.6126,-2.6125,-2.6125,-2.604,0,0,0,0,0,0,-2.5376,-2.5399,-2.5406,-2.551,-2.5538,-2.5619,-2.5673,-2.5694,-2.5732,-2.5741,-2.584,-2.5857,-2.5921,-2.5979,-2.5995,-2.5994,-2.6028,-2.6127,-2.6126,-2.6125,-2.6043,-2.6036,-2.603,0,0,0,0,0,-2.5368,-2.5374,-2.5406,-2.5426,-2.5549,-2.5618,-2.5635,-2.5709,-2.5731,-2.574,-2.5806,-2.5854,-2.5983,-2.5984,-2.6002,-2.6003,-2.6128,-2.6126,-2.6125,-2.6046,-2.6037,-2.603,0,0,0,0,0,0,-2.5266,-2.5389,-2.5426,-2.5466,-2.5531,-2.5636,-2.5649,-2.5696,-2.5756,-2.5761,-2.585,-2.5872,-2.5915,-2.5964,-2.5963,-2.6029,-2.6061,-2.6063,-2.5995,-2.5988,-2.5981,-2.5969,-2.6032,0,0,0,0,0,-2.5249,-2.5295,-2.54,-2.5425,-2.5456,-2.5547,-2.558,-2.5632,-2.5703,-2.573,-2.58,-2.5867,-2.5923,-2.5958,-2.6015,-2.6051,-2.6076,-2.6061,-2.6054,-2.6048,-2.6049,-2.6077,-2.6072,-2.612,-2.612,-2.612,0,0,-2.5213,-2.5286,-2.5309,-2.5407,-2.5463,-2.5511,-2.5569,-2.5615,-2.5651,-2.5737,-2.5791,-2.5845,-2.5926,-2.5971,-2.5994,-2.6013,-2.6042,-2.6047,-2.6041,-2.6046,-2.6075,-2.607,-2.6066,-2.6119,-2.6119,-2.6119,0,0,-2.5172,-2.523,-2.526,-2.5317,-2.5403,-2.5464,-2.5471,-2.557,-2.5609,-2.5665,-2.5732,-2.5777,-2.5871,-2.5927,-2.5968,-2.5954,-2.6002,-2.597,-2.5935,-2.596,-2.5957,-2.5954,-2.5952,-2.5949,-2.5971,-2.5971,-2.597,0,-2.5116,-2.5189,-2.5269,-2.5313,-2.5356,-2.5438,-2.547,-2.5521,-2.562,-2.5649,-2.5669,-2.5792,-2.5852,-2.5914,-2.5911,-2.594,-2.5953,-2.5959,-2.5951,-2.5949,-2.5947,-2.5946,-2.5945,-2.5966,-2.5967,-2.5967,-2.5968,0,-2.5118,-2.5168,-2.5182,-2.5279,-2.5323,-2.536,-2.5448,-2.5483,-2.5533,-2.5592,-2.565,-2.5726,-2.5802,-2.582,-2.5867,-2.589,-2.5899,-2.5933,-2.5968,-2.5937,-2.5938,-2.5938,-2.596,-2.5962,-2.5963,-2.5964,0,0,-2.5015,-2.5159,-2.5163,-2.521,-2.5313,-2.5354,-2.5397,-2.5472,-2.5502,-2.5569,-2.5609,-2.5689,-2.5724,-2.577,-2.5825,-2.5847,-2.5835,-2.588,-2.5883,-2.5871,-2.5869,-2.5844,-2.5842,-2.5868,-2.5868,-2.5868,-2.5863,0,-2.4991,-2.5073,-2.5148,-2.5203,-2.5252,-2.5333,-2.5372,-2.544,-2.5497,-2.5548,-2.5612,-2.5669,-2.5708,-2.5737,-2.5763,-2.5831,-2.5837,-2.5832,-2.5908,-2.5909,-2.5886,-2.5842,-2.5814,-2.5805,-2.5864,-2.5864,-2.5864,0,-2.4973,-2.5039,-2.5099,-2.5202,-2.5226,-2.5258,-2.5336,-2.5383,-2.5464,-2.5505,-2.5559,-2.5618,-2.567,-2.5699,-2.5773,-2.5768,-2.5804,-2.5843,-2.5844,-2.5855,-2.5885,-2.5853,-2.5804,-2.5803,-2.5864,-2.5864,-2.5864,0,-2.4896,-2.5,-2.505,-2.5087,-2.5207,-2.5229,-2.528,-2.5362,-2.5404,-2.5472,-2.5502,-2.5574,-2.5614,-2.567,-2.5748,-2.5761,-2.5815,-2.585,-2.5852,-2.585,-2.586,-2.5858,-2.5817,-2.588,-2.588,-2.588,-2.588,0,-2.4862,-2.4896,-2.5018,-2.5049,-2.5091,-2.5179,-2.5218,-2.5276,-2.5349,-2.5394,-2.5468,-2.5509,-2.5609,-2.5663,-2.5725,-2.5779,-2.5795,-2.5831,-2.5848,-2.5826,-2.5821,-2.5851,-2.5854,-2.588,-2.588,-2.588,-2.588,0,-2.4782,-2.4864,-2.4926,-2.5036,-2.5065,-2.5091,-2.5186,-2.5221,-2.5284,-2.5341,-2.5359,-2.5459,-2.5526,-2.561,-2.5703,-2.5745,-2.5794,-2.5817,-2.5767,-2.5776,-2.5775,-2.5775,-2.5753,-2.5756,-2.5813,-2.5813,-2.5812,0,-2.4755,-2.4784,-2.4899,-2.4935,-2.4984,-2.5041,-2.5086,-2.5175,-2.5218,-2.5315,-2.5338,-2.5412,-2.5476,-2.558,-2.5661,-2.5735,-2.5762,-2.5749,-2.5773,-2.5752,-2.5765,-2.5763,-2.5767,-2.5743,-2.5742,-2.5741,-2.574,0,-2.47,-2.4741,-2.4802,-2.4879,-2.4931,-2.4995,-2.5063,-2.5089,-2.5192,-2.5238,-2.5309,-2.5358,-2.5456,-2.5529,-2.5614,-2.5668,-2.5722,-2.5732,-2.5737,-2.5716,-2.5686,-2.5705,-2.5752,-2.5732,-2.5733,-2.5733,-2.5734,-2.5734,-2.4648,-2.4679,-2.4766,-2.4833,-2.4894,-2.4957,-2.4996,-2.5066,-2.5127,-2.5214,-2.5263,-2.5334,-2.5418,-2.5538,-2.559,-2.5648,-2.5667,-2.5673,-2.5675,-2.5676,-2.567,-2.5676,-2.5663,-2.5663,-2.5664,-2.5664,-2.5664,0,-2.46,-2.466,-2.4721,-2.4816,-2.4869,-2.4917,-2.4996,-2.5038,-2.5099,-2.5173,-2.5236,-2.5319,-2.5392,-2.548,-2.5559,-2.5588,-2.5616,-2.5606,-2.5606,-2.5618,-2.5647,-2.5636,-2.5583,-2.5583,-2.5583,-2.5583,-2.5583,-2.5583,-2.458,-2.4637,-2.4688,-2.4777,-2.4838,-2.4909,-2.495,-2.501,-2.507,-2.516,-2.5222,-2.5279,-2.5361,-2.5447,-2.5517,-2.5541,-2.5568,-2.5551,-2.5583,-2.5608,-2.5615,-2.5622,-2.5613,-2.5556,-2.5556,-2.555,-2.555,-2.555]}]]